Location: Willingham
(52.3167°N, 0.0667°E)
Time: 19:51:34
(UTC+00:00)

SeaSat 1 - Pass Details

Date: 19 May 2025
Orbit: 738 x 740 km, 108.0° (Epoch: 21 June)

Event Time Altitude Azimuth Distance (km) Brightness Sun altitude
Exits shadow 23:16:25 15° 222° (SW) 1,946 4.2 -17.2°
Maximum altitude 23:18:39 19° 255° (WSW) 1,703 4.2 -17.2°
Drops below altitude 10° 23:22:08 10° 301° (WNW) 2,258 5.5 -17.3°
Sets 23:25:02 0° 319° (NW) 3,187 6.7 -17.4°
